Location: Ajisawe
(8.4333°N, 4.3833°E)
Time: 11:32:54
(UTC+00:00)

Vanguard 1 Rocket - All Passes

Search period start: 18 April 2021 00:00
Search period end: 28 April 2021 00:00
Orbit: 653 x 4223 km, 34.3° (Epoch: 17 April)

Date Brightness Start Highest point End Pass type
(mag) Time Alt. Az. Time Alt. Az. Time Alt. Az.
18 Apr - 02:09:41 10° SW 02:19:36 14° SSW 02:30:24 10° SSE visible
18 Apr - 04:54:59 10° SSW 05:04:03 13° S 05:11:59 10° SSE visible
18 Apr - 07:25:15 10° SSW 07:40:49 28° SSE 07:50:21 10° E daylight
18 Apr - 09:56:18 10° SW 10:10:22 82° SE 10:17:21 10° ENE daylight
18 Apr - 12:30:54 10° WNW 12:35:46 18° NW 12:39:25 10° N daylight
18 Apr - 17:31:51 10° NNE 17:32:37 10° NNE 17:33:23 10° NE daylight
18 Apr - 19:51:14 10° NW 19:58:19 66° NE 20:12:25 10° ESE visible
18 Apr - 22:16:33 10° W 22:26:46 42° SSW 22:45:20 10° SE visible
19 Apr - 00:50:14 10° SW 01:01:32 18° SSW 01:15:51 10° SSE visible
19 Apr - 03:38:19 10° SSW 03:44:57 11° S 03:51:24 10° SSE visible
19 Apr - 06:10:47 10° SSW 06:25:47 21° SSE 06:36:18 10° ESE daylight
19 Apr - 08:41:25 10° SW 08:58:01 53° SSE 09:06:29 10° ENE daylight
19 Apr - 11:14:44 10° WSW 11:24:41 40° NW 11:30:23 10° NNE daylight
19 Apr - 18:41:30 10° NNW 18:47:02 34° NE 18:56:23 10° E visible
19 Apr - 21:05:01 10° WNW 21:13:28 60° SSW 21:30:23 10° SE visible
19 Apr - 23:34:17 10° WSW 23:45:13 24° SSW 00:01:21 10° SSE visible
20 Apr - 02:17:55 10° SSW 02:25:11 12° S 02:32:48 10° SSE visible
20 Apr - 04:56:14 10° SSW 05:09:08 16° SSE 05:19:39 10° SE visible
20 Apr - 07:26:38 10° SSW 07:44:33 37° SSE 07:54:42 10° E daylight
20 Apr - 09:59:00 10° WSW 10:13:22 75° NW 10:20:30 10° NE daylight
20 Apr - 12:36:05 10° WNW 12:38:56 12° NW 12:41:22 10° N daylight
20 Apr - 17:32:47 10° N 17:35:52 15° NE 17:39:43 10° ENE daylight
20 Apr - 19:54:19 10° NW 20:01:16 87° NE 20:15:17 10° SE visible
20 Apr - 22:20:42 10° W 22:30:23 32° SSW 22:46:50 10° SSE visible
21 Apr - 00:57:23 10° SW 01:06:25 14° SSW 01:17:05 10° SSE visible
21 Apr - 03:41:22 10° SSW 03:50:42 13° S 03:59:28 10° SSE visible
21 Apr - 06:12:00 10° SSW 06:29:52 27° SSE 06:41:32 10° ESE daylight
21 Apr - 08:43:30 10° SW 09:01:14 70° SE 09:09:58 10° ENE daylight
21 Apr - 11:18:35 10° W 11:27:35 29° NW 11:33:07 10° NNE daylight
21 Apr - 18:44:17 10° NW 18:49:56 47° NE 19:00:01 10° ESE visible
21 Apr - 21:08:38 10° W 21:16:49 45° SSW 21:32:19 10° SE visible
21 Apr - 23:39:59 10° SW 23:49:28 18° SSW 00:02:23 10° SSE visible
22 Apr - 02:25:10 10° SSW 02:31:02 11° S 02:37:03 10° SSE visible
22 Apr - 04:57:33 10° SSW 05:13:46 20° SSE 05:26:12 10° ESE visible
22 Apr - 07:28:16 10° SW 07:48:02 49° SSE 07:58:37 10° ENE daylight
22 Apr - 10:02:02 10° WSW 10:16:16 57° NW 10:23:30 10° NE daylight
22 Apr - 17:35:00 10° NNW 17:38:57 21° NE 17:44:27 10° E daylight
22 Apr - 19:57:35 10° WNW 20:04:22 69° SSW 20:17:48 10° SE visible
22 Apr - 22:25:22 10° WSW 22:34:14 24° SSW 22:48:04 10° SSE visible
23 Apr - 01:05:50 10° SSW 01:11:44 11° S 01:18:11 10° S visible
23 Apr - 03:43:21 10° SSW 03:56:04 15° SSE 04:07:29 10° SE visible
23 Apr - 06:13:23 10° SSW 06:33:38 35° SSE 06:46:07 10° E daylight
23 Apr - 08:45:51 10° SW 09:04:17 89° SE 09:13:13 10° NE daylight
23 Apr - 11:22:53 10° W 11:30:35 22° NW 11:35:43 10° NNE daylight
23 Apr - 18:47:14 10° NW 18:52:52 68° NE 19:03:16 10° ESE visible
23 Apr - 21:12:37 10° W 21:20:23 33° SSW 21:33:58 10° SSE visible
23 Apr - 23:46:52 10° SW 23:54:05 13° SSW 00:03:00 10° SSE visible
24 Apr - 02:29:29 10° S 02:36:54 12° S 02:44:23 10° SSE visible
24 Apr - 04:58:57 10° SSW 05:17:59 26° SSE 05:31:49 10° ESE visible
24 Apr - 07:30:07 10° SW 07:51:17 62° SSE 08:02:13 10° ENE daylight
24 Apr - 10:05:27 10° WSW 10:19:05 43° NW 10:26:23 10° NNE daylight
24 Apr - 17:37:31 10° NNW 17:41:58 30° NE 17:48:35 10° E daylight
24 Apr - 20:01:06 10° WNW 20:07:39 48° SSW 20:20:01 10° SE visible
24 Apr - 22:30:49 10° SW 22:38:21 17° SSW 22:48:54 10° SSE visible
25 Apr - 03:45:02 10° SSW 04:00:56 19° SSE 04:14:38 10° ESE visible
25 Apr - 06:14:57 10° SW 06:37:08 45° SSE 06:50:13 10° E daylight
25 Apr - 08:48:32 10° WSW 09:07:09 73° NW 09:16:18 10° NE daylight
25 Apr - 11:27:39 10° WNW 11:33:45 17° NW 11:38:10 10° N daylight
25 Apr - 16:29:06 10° N 16:30:54 12° NNE 16:32:54 10° NE daylight
25 Apr - 18:50:22 10° WNW 18:55:55 83° SW 19:06:08 10° SE visible
25 Apr - 21:17:06 10° WSW 21:24:09 23° SSW 21:35:16 10° SSE visible
25 Apr - 23:56:39 10° SSW 23:59:05 10° S 00:01:39 10° S visible
26 Apr - 02:31:56 10° S 02:42:28 13° SSE 02:52:57 10° SE visible
26 Apr - 05:00:25 10° SSW 05:21:49 33° SSE 05:36:43 10° E visible
26 Apr - 07:32:14 10° SW 07:54:20 78° SE 08:05:33 10° ENE daylight
26 Apr - 10:09:15 10° W 10:21:57 34° NW 10:29:09 10° NNE daylight
26 Apr - 17:40:16 10° NW 17:44:56 46° NE 17:52:13 10° ESE daylight
26 Apr - 20:04:55 10° W 20:11:08 33° SSW 20:21:54 10° SSE visible
26 Apr - 22:37:43 10° SW 22:42:43 12° SSW 22:48:50 10° S night (unlit)
27 Apr - 03:46:37 10° SSW 04:05:19 24° SSE 04:20:49 10° ESE visible
27 Apr - 06:16:42 10° SW 06:40:23 56° SE 06:53:57 10° ENE daylight
27 Apr - 08:51:32 10° WSW 09:09:56 58° NW 09:19:16 10° NE daylight
27 Apr - 11:32:57 10° NW 11:37:06 13° NNW 11:40:26 10° N daylight
27 Apr - 16:30:52 10° N 16:34:06 18° NE 16:37:57 10° E daylight
27 Apr - 18:53:44 10° WNW 18:59:07 55° SSW 19:08:40 10° SE visible
27 Apr - 21:22:24 10° SW 21:28:07 16° SSW 21:36:02 10° SSE visible
